Wappingers Falls, NY

11:46 PM EST on February 22, 2017 (GMT -0500)
Dutchess County

Weather History for KPOU - October, 2013

Change the Weather History Date:

Wednesday, October 23, 2013

  Actual Average Record
Temperature  
Mean Temperature 44 °F 48 °F  
Max Temperature 55 °F 61 °F 78 °F (1979)
Min Temperature 33 °F 37 °F 22 °F (1982)
Degree Days  
Heating Degree Days 21 16  
Month to date heating degree days 178 295  
Since 1 July heating degree days 321 435  
Cooling Degree Days 0 0  
Month to date cooling degree days 8 0  
Year to date cooling degree days 829 668  
Moisture  
Dew Point 34 °F    
Average Humidity 79    
Maximum Humidity 100    
Minimum Humidity 41    
Precipitation  
Precipitation T in 0.15 in 2.57 in (1990)
Month to date precipitation 1.37 3.41  
Year to date precipitation 33.91 38.47  
Sea Level Pressure  
Sea Level Pressure 29.73 in    
Wind  
Wind Speed 1 mph (WNW)    
Max Wind Speed 8 mph    
Max Gust Speed -    
Visibility 7 miles    
Events Fog    
T = Trace of Precipitation, MM = Missing Value Source: NWS Daily Summary

Daily Weather History Graph

Daily Weather History Graph

Search for Another Location

Airport or City:

Trip Planner

Search our weather history database for the weather conditions in past years. The results will help you decide how hot, cold, wet, or windy it might be!

Date:

Astronomy

Oct. 23, 2013 Rise Set
Actual Time 7:17 AM EDT 6:01 PM EDT
Civil Twilight 6:48 AM EDT 6:30 PM EDT
Nautical Twilight 6:16 AM EDT 7:02 PM EDT
Astronomical Twilight 5:44 AM EDT 7:34 PM EDT
Moon 9:28 PM EDT 11:34 AM EDT
Length of Visible Light 11h 41m
Length of Day
10h 44m
Waning Gibbous, 79% of the Moon is Illuminated
Oct 23
Waning Gibbous
Oct 26
Last Quarter
Nov 3
New
Nov 10
First Quarter
Nov 17
Full

Hourly Weather History & Observations

Time (EDT) Temp. Windchill Dew Point Humidity Pressure Visibility Wind Dir Wind Speed Gust Speed Precip Events Conditions
12:53 AM 36.0 °F - 34.0 °F 93% 29.82 in 10.0 mi Calm Calm - N/A   Clear
1:53 AM 36.0 °F - 34.0 °F 93% 29.81 in 10.0 mi Calm Calm - N/A   Clear
2:53 AM 36.0 °F - 34.0 °F 93% 29.80 in 10.0 mi Calm Calm - N/A   Clear
3:53 AM 35.1 °F - 33.1 °F 92% 29.78 in 10.0 mi Calm Calm - N/A   Clear
4:53 AM 34.0 °F - 32.0 °F 92% 29.78 in 10.0 mi Calm Calm - N/A   Clear
5:53 AM 33.1 °F - 30.9 °F 92% 29.78 in 10.0 mi Calm Calm - N/A   Scattered Clouds
6:04 AM 33.8 °F - 32.0 °F 93% 29.78 in 10.0 mi Calm Calm - N/A   Mostly Cloudy
6:53 AM 34.0 °F - 33.1 °F 96% 29.77 in 1.0 mi Calm Calm - N/A   Overcast
7:14 AM 33.8 °F - 33.8 °F 100% 29.78 in 0.2 mi Calm Calm - N/A Fog Fog
7:36 AM 33.8 °F - 33.8 °F 100% 29.78 in 1.0 mi Calm Calm - N/A   Mist
7:43 AM 33.8 °F - 33.8 °F 100% 29.79 in 0.8 mi Calm Calm - N/A   Overcast
7:53 AM 35.1 °F - 34.0 °F 96% 29.78 in 0.8 mi Calm Calm - N/A   Mostly Cloudy
8:01 AM 35.6 °F - 33.8 °F 93% 29.78 in 1.0 mi Calm Calm - N/A   Mostly Cloudy
8:53 AM 37.9 °F - 37.0 °F 97% 29.78 in 1.0 mi Calm Calm - N/A   Overcast
9:53 AM 41.0 °F - 37.0 °F 86% 29.77 in 1.0 mi Calm Calm - N/A   Overcast
10:53 AM 43.0 °F 41.3 °F 39.9 °F 89% 29.75 in 5.0 mi NNW 3.5 mph - N/A   Overcast
11:53 AM 46.0 °F - 41.0 °F 83% 29.73 in 10.0 mi Calm Calm - N/A   Mostly Cloudy
12:53 PM 52.0 °F - 36.0 °F 54% 29.68 in 10.0 mi Variable 3.5 mph - N/A   Clear
1:53 PM 54.0 °F - 30.9 °F 41% 29.62 in 10.0 mi Calm Calm - N/A   Clear
2:53 PM 53.1 °F - 32.0 °F 45% 29.62 in 10.0 mi West 5.8 mph - N/A   Overcast
3:53 PM 52.0 °F - 32.0 °F 47% 29.63 in 10.0 mi NW 4.6 mph - N/A   Overcast
4:53 PM 51.1 °F - 33.1 °F 50% 29.63 in 10.0 mi NW 8.1 mph - 0.00 in   Overcast
5:53 PM 48.9 °F - 34.0 °F 56% 29.65 in 10.0 mi WNW 8.1 mph - N/A   Overcast
6:53 PM 46.9 °F - 34.0 °F 61% 29.66 in 10.0 mi WNW 4.6 mph - N/A   Overcast
7:53 PM 46.9 °F - 35.1 °F 63% 29.67 in 10.0 mi WNW 4.6 mph - N/A   Overcast
8:53 PM 46.0 °F 44.8 °F 36.0 °F 68% 29.68 in 10.0 mi WSW 3.5 mph - N/A   Overcast
9:53 PM 45.0 °F 43.5 °F 36.0 °F 71% 29.70 in 10.0 mi WSW 3.5 mph - N/A   Mostly Cloudy
10:53 PM 46.0 °F 41.9 °F 36.0 °F 68% 29.72 in 10.0 mi WSW 8.1 mph - N/A   Overcast
11:53 PM 46.0 °F 43.9 °F 36.0 °F 68% 29.73 in 10.0 mi WSW 4.6 mph - N/A   Overcast